[[{"header":{"parameterUnit":"m.s-1","parameterCategory":1,"la1":30.2991,"la2":30.254,"lo1":-89.0895,"lo2":-89.0444,"dy":0.0017,"dx":0.0017,"nx":28,"ny":28,"refTime":"2024-10-12T03:00:00:Z","depth":0,"parameterNumber":2,"parameterNumberName":"U-component_of_WINDS"},"data":[0,0,0,0,0,0,0,0,0,0,0,0,0,0,0,0,0,0,0,0,0,0,0,0,0,0,0,0,0,0,0,0,0,0,0,0,0,0,0,0,0,0,0,0,0,0,0,0,0,0,0,0,0,0,0,0,0,0,1.147,1.147,0,1.1509,1.151,1.151,1.1509,1.1508,1.1508,1.1507,1.1549,1.155,1.1552,0,0,0,0,0,0,0,0,0,0,0,0,0,1.1394,1.1395,1.147,1.147,1.1471,1.1509,1.151,1.151,1.1509,1.1508,1.1507,1.1507,1.1548,1.155,1.1552,0,0,0,0,0,0,0,0,0,0,0,0,0,1.1429,1.1396,1.1469,1.1474,1.1475,1.1509,1.151,1.151,1.1509,1.1508,1.1507,1.1506,1.1548,1.155,1.1552,1.1584,0,0,1.156,1.1561,0,0,0,0,0,0,0,0,1.1427,1.1432,1.1473,1.1474,1.1475,1.1503,1.1498,1.1535,1.1509,1.1496,1.1507,1.1506,1.1534,1.1538,1.1547,1.1586,1.1588,1.156,1.1561,1.1563,1.1563,0,0,0,0,0,0,0,1.1425,1.143,1.1485,1.1474,1.1475,1.1475,1.1479,1.1505,1.1519,1.1497,1.1497,1.1502,1.1535,1.1545,1.1548,1.1588,1.156,1.1562,1.1564,1.1565,1.1655,1.1655,0,0,0,0,0,0,1.1421,1.1428,1.1484,1.1486,1.1449,1.1477,1.1482,1.1495,1.1519,1.1522,1.1502,1.1502,1.1541,1.1545,1.1549,1.1588,1.1563,1.1565,1.1566,1.1654,1.1655,1.1656,0,0,0,0,0,0,1.142,1.1426,1.1482,1.1457,1.1465,1.1479,1.1494,1.1496,1.1506,1.1523,1.1526,1.151,1.154,1.1546,1.1575,1.1589,1.1566,1.1568,1.1653,1.1654,1.1655,1.1665,0,0,0,0,0,0,1.1417,1.1426,1.1438,1.1458,1.1466,1.1507,1.1495,1.1498,1.151,1.1509,1.1531,1.1534,1.154,1.1572,1.1578,1.1592,1.157,1.1651,1.1653,1.1655,1.1663,1.1666,1.1669,0,0,0,0,0,1.1415,1.1439,1.1438,1.1445,1.1481,1.1508,1.1513,1.152,1.1511,1.1524,1.1534,1.1533,1.1587,1.1575,1.1581,1.1597,1.1651,1.1653,1.1655,1.1662,1.1666,1.1669,0,0,0,0,0,0,1.1421,1.1442,1.1441,1.1473,1.1489,1.1508,1.1524,1.1523,1.1542,1.1541,1.1549,1.1553,1.1582,1.1593,1.1579,1.1628,1.1618,1.1621,1.1621,1.1624,1.1627,1.1624,1.1572,0,0,0,0,0,1.1426,1.1446,1.1463,1.1489,1.1497,1.1509,1.1521,1.1525,1.1542,1.1548,1.1561,1.1578,1.1599,1.1612,1.1632,1.1665,1.1669,1.1679,1.1681,1.1684,1.1687,1.1704,1.1708,1.1663,1.1663,1.1663,0,0,1.1437,1.145,1.1463,1.1491,1.1504,1.1524,1.1515,1.1537,1.1552,1.1552,1.158,1.159,1.1609,1.164,1.1654,1.1649,1.17,1.1686,1.1688,1.169,1.1707,1.1711,1.1715,1.1664,1.1664,1.1664,0,0,1.1466,1.1479,1.1502,1.1515,1.1534,1.1541,1.1547,1.1566,1.1572,1.1601,1.1601,1.1619,1.1654,1.1668,1.1679,1.1714,1.1713,1.172,1.1735,1.1752,1.1755,1.1759,1.177,1.1775,1.1723,1.1723,1.1723,0,1.1477,1.1508,1.1514,1.1536,1.1549,1.1548,1.1572,1.1584,1.1609,1.1617,1.1611,1.1655,1.1668,1.1702,1.171,1.172,1.1726,1.1718,1.1754,1.1758,1.1761,1.1772,1.1777,1.1724,1.1723,1.1723,1.1723,0,1.1521,1.1542,1.1558,1.1581,1.1596,1.1618,1.1628,1.1641,1.1644,1.1652,1.168,1.1696,1.1718,1.1727,1.1729,1.1761,1.1757,1.1752,1.1742,1.1766,1.1776,1.1781,1.1725,1.1724,1.1724,1.1724,0,0,1.1556,1.1582,1.1588,1.1598,1.1619,1.1635,1.1658,1.168,1.1691,1.1708,1.1727,1.1757,1.1752,1.1765,1.1769,1.1784,1.181,1.1778,1.1779,1.1783,1.1845,1.1848,1.1853,1.1809,1.181,1.1811,1.1843,0,1.1588,1.1628,1.1634,1.1669,1.1688,1.1688,1.1708,1.1722,1.1731,1.1748,1.1757,1.1778,1.1771,1.1779,1.1793,1.1804,1.1822,1.1801,1.1827,1.1828,1.1822,1.1859,1.1863,1.1892,1.1848,1.1848,1.1849,0,1.1631,1.1648,1.1685,1.1703,1.1711,1.1729,1.1749,1.1766,1.1783,1.1787,1.1801,1.1803,1.1827,1.1815,1.1847,1.1832,1.1843,1.185,1.1851,1.1854,1.184,1.1863,1.1902,1.1907,1.1856,1.1855,1.1855,0,1.1653,1.1686,1.1712,1.1721,1.1742,1.1754,1.1764,1.178,1.1792,1.181,1.1818,1.1838,1.1849,1.1864,1.1872,1.1862,1.1903,1.1892,1.1908,1.1908,1.1917,1.1916,1.1958,1.1924,1.1924,1.1923,1.1923,0,1.1688,1.1711,1.1722,1.1738,1.1763,1.177,1.1794,1.1803,1.1817,1.1835,1.1836,1.1853,1.1862,1.188,1.1886,1.1911,1.1916,1.1921,1.1922,1.1921,1.192,1.1928,1.1926,1.1925,1.1924,1.1924,1.1924,0,1.1717,1.1726,1.1754,1.1772,1.1777,1.1794,1.1809,1.1825,1.1832,1.1855,1.1861,1.1873,1.1894,1.1903,1.1929,1.1933,1.1962,1.1961,1.1956,1.1956,1.1972,1.197,1.2021,1.2027,1.1988,1.1989,1.1989,0,1.1739,1.1757,1.1776,1.1787,1.1797,1.1816,1.1829,1.1835,1.1848,1.1868,1.1881,1.1902,1.192,1.1953,1.1964,1.1984,1.1984,1.2001,1.1987,1.1985,1.1984,1.1983,1.1985,1.2003,1.2004,1.2004,1.2004,0,1.1778,1.1781,1.1798,1.1818,1.1832,1.1848,1.1863,1.1873,1.1882,1.1896,1.1918,1.1931,1.1957,1.1978,1.1998,1.2008,1.2007,1.2008,1.2013,1.2012,1.2008,1.201,1.1962,1.2007,1.2007,1.2007,1.2006,1.2006,1.1804,1.1819,1.1834,1.1854,1.1866,1.188,1.1895,1.1904,1.1922,1.1944,1.1947,1.1969,1.1985,1.2012,1.2022,1.204,1.2036,1.2043,1.2045,1.2046,1.2047,1.2005,1.2044,1.2044,1.2044,1.2044,1.2044,0,1.1842,1.1851,1.1869,1.189,1.1906,1.1904,1.192,1.1933,1.1953,1.1967,1.1984,1.2008,1.2028,1.204,1.206,1.2072,1.2072,1.2077,1.2076,1.2078,1.205,1.2044,1.2077,1.2077,1.2076,1.2076,1.2076,1.2076,1.1863,1.1889,1.1893,1.1924,1.1934,1.1956,1.1966,1.1978,1.199,1.2017,1.2033,1.2041,1.2054,1.2075,1.2093,1.2096,1.2103,1.2108,1.2111,1.2084,1.2081,1.2077,1.2072,1.211,1.211,1.2138,1.2138,1.2138]},{"header":{"parameterUnit":"m.s-1","parameterCategory":1,"la1":30.2991,"la2":30.254,"lo1":-89.0895,"lo2":-89.0444,"dy":0.0017,"dx":0.0017,"nx":28,"ny":28,"refTime":"2024-10-12T03:00:00:Z","depth":0,"parameterNumber":3,"parameterNumberName":"V-component_of_WINDS"},"data":[0,0,0,0,0,0,0,0,0,0,0,0,0,0,0,0,0,0,0,0,0,0,0,0,0,0,0,0,0,0,0,0,0,0,0,0,0,0,0,0,0,0,0,0,0,0,0,0,0,0,0,0,0,0,0,0,0,0,1.4263,1.4263,0,1.4227,1.4226,1.4226,1.4231,1.4232,1.4232,1.4233,1.4191,1.419,1.4188,0,0,0,0,0,0,0,0,0,0,0,0,0,1.4333,1.4332,1.4263,1.4263,1.4263,1.4227,1.4226,1.4226,1.4231,1.4232,1.4232,1.4233,1.4192,1.419,1.4188,0,0,0,0,0,0,0,0,0,0,0,0,0,1.43,1.4332,1.4264,1.4261,1.426,1.4227,1.4226,1.4226,1.4231,1.4232,1.4233,1.4233,1.4193,1.419,1.4188,1.4154,0,0,1.418,1.4179,0,0,0,0,0,0,0,0,1.4302,1.4298,1.4262,1.4261,1.426,1.4234,1.4236,1.4201,1.423,1.4242,1.4233,1.4234,1.4205,1.4201,1.4192,1.4152,1.415,1.418,1.4178,1.4177,1.4177,0,0,0,0,0,0,0,1.4304,1.4299,1.4249,1.4261,1.426,1.426,1.4256,1.4229,1.4218,1.4241,1.4241,1.4237,1.4205,1.4195,1.4191,1.4149,1.418,1.4178,1.4176,1.4175,1.4075,1.4074,0,0,0,0,0,0,1.4308,1.4301,1.425,1.4248,1.4284,1.4258,1.4254,1.4242,1.4219,1.4216,1.4236,1.4237,1.4199,1.4194,1.419,1.4146,1.4177,1.4175,1.4173,1.4076,1.4075,1.4074,0,0,0,0,0,0,1.4309,1.4303,1.4251,1.4274,1.4268,1.4256,1.4242,1.424,1.4231,1.4215,1.4213,1.4228,1.4199,1.4193,1.4162,1.4145,1.4174,1.4171,1.4078,1.4076,1.4074,1.4059,0,0,0,0,0,0,1.4311,1.4304,1.4292,1.4274,1.4267,1.4226,1.4241,1.4239,1.4227,1.4228,1.4207,1.4205,1.4199,1.4166,1.416,1.4142,1.417,1.4079,1.4077,1.4075,1.4061,1.4057,1.4054,0,0,0,0,0,1.4314,1.4289,1.4291,1.4285,1.4252,1.4225,1.422,1.4216,1.4225,1.4212,1.4202,1.4205,1.4148,1.4163,1.4156,1.4137,1.408,1.4078,1.4075,1.4063,1.4058,1.4054,0,0,0,0,0,0,1.4305,1.4287,1.4289,1.4258,1.4243,1.4226,1.4209,1.4211,1.4192,1.4194,1.4188,1.4183,1.415,1.4141,1.4157,1.4101,1.4115,1.4111,1.4108,1.4103,1.41,1.4102,1.4167,0,0,0,0,0,1.4299,1.428,1.4265,1.4239,1.4231,1.4222,1.421,1.4207,1.4191,1.4184,1.4172,1.4154,1.4132,1.4118,1.4097,1.406,1.4054,1.4044,1.404,1.4037,1.4033,1.401,1.4004,1.4065,1.4065,1.4065,0,0,1.4287,1.4275,1.4263,1.4237,1.4225,1.4203,1.4216,1.4193,1.4177,1.418,1.415,1.414,1.412,1.4085,1.4069,1.4076,1.4015,1.4034,1.4031,1.4029,1.4007,1.4001,1.3996,1.4064,1.4064,1.4064,0,0,1.4254,1.4244,1.422,1.4207,1.4189,1.4183,1.4177,1.4159,1.4152,1.4122,1.4123,1.4103,1.4065,1.405,1.4038,1.3997,1.3998,1.399,1.397,1.3948,1.3943,1.3938,1.3921,1.3915,1.3986,1.3986,1.3986,0,1.4241,1.421,1.4207,1.4183,1.417,1.4174,1.4148,1.4136,1.4111,1.4101,1.4109,1.4061,1.4048,1.4008,1.3998,1.3989,1.398,1.3992,1.3944,1.394,1.3935,1.3919,1.3912,1.3985,1.3985,1.3986,1.3986,0,1.4193,1.4172,1.4154,1.4131,1.4116,1.4091,1.4083,1.4068,1.4067,1.4058,1.4025,1.401,1.3984,1.3975,1.3974,1.3934,1.3939,1.3946,1.396,1.3928,1.3912,1.3906,1.3984,1.3984,1.3984,1.3985,0,0,1.4153,1.4127,1.4121,1.4109,1.4088,1.4071,1.4045,1.4021,1.4007,1.399,1.3966,1.3934,1.3939,1.3925,1.3922,1.3902,1.3867,1.3911,1.391,1.3901,1.3819,1.3813,1.3805,1.3869,1.3867,1.3867,1.382,0,1.4116,1.4072,1.4068,1.4028,1.4006,1.4008,1.3985,1.3969,1.396,1.3939,1.3929,1.3905,1.3916,1.3907,1.3888,1.3876,1.385,1.3879,1.3844,1.3843,1.3847,1.3798,1.3791,1.3748,1.3814,1.3813,1.3812,0,1.4067,1.4048,1.4006,1.3986,1.3977,1.3957,1.3933,1.3913,1.3894,1.3889,1.3872,1.3871,1.3842,1.3858,1.3816,1.3836,1.3821,1.3813,1.3811,1.3806,1.3824,1.3788,1.3734,1.3727,1.3803,1.3804,1.3804,0,1.4038,1.4002,1.3972,1.3962,1.3939,1.3924,1.3914,1.3895,1.388,1.3859,1.3849,1.3824,1.381,1.379,1.3781,1.3794,1.3739,1.3755,1.3731,1.3731,1.3718,1.3719,1.3658,1.3713,1.3713,1.3713,1.3713,0,1.3996,1.3969,1.3958,1.3939,1.3908,1.3903,1.3872,1.3862,1.3846,1.3823,1.3823,1.3802,1.3792,1.3768,1.3761,1.3726,1.372,1.3713,1.3711,1.3712,1.3712,1.3701,1.3702,1.3711,1.3712,1.3712,1.3712,0,1.3958,1.395,1.3916,1.3897,1.3892,1.387,1.3852,1.3832,1.3824,1.3795,1.3788,1.3773,1.3745,1.3735,1.37,1.3695,1.3653,1.3655,1.366,1.3659,1.3635,1.3636,1.3563,1.3551,1.3616,1.3615,1.3615,0,1.3931,1.391,1.3888,1.3874,1.3863,1.3839,1.3824,1.3817,1.3801,1.3776,1.3758,1.373,1.3707,1.3662,1.3647,1.362,1.3619,1.3595,1.3615,1.3615,1.3615,1.3615,1.3612,1.3591,1.359,1.359,1.3589,0,1.3881,1.3878,1.3857,1.3833,1.3814,1.3795,1.3777,1.3764,1.3754,1.3735,1.3707,1.3689,1.3653,1.3624,1.3596,1.3583,1.3583,1.3583,1.3576,1.3575,1.3578,1.3573,1.3647,1.3585,1.3585,1.3585,1.3586,1.3586,1.3846,1.3827,1.3808,1.3783,1.3769,1.3751,1.373,1.3719,1.3696,1.3667,1.3664,1.3632,1.3611,1.3573,1.3558,1.3532,1.3538,1.3528,1.3525,1.3522,1.3519,1.3584,1.3527,1.3527,1.3527,1.3527,1.3528,0,1.3795,1.3783,1.376,1.3734,1.3713,1.3717,1.3696,1.3678,1.3651,1.3631,1.3609,1.3574,1.3545,1.3528,1.3499,1.3481,1.348,1.3473,1.3473,1.3469,1.3516,1.3524,1.3474,1.3474,1.3474,1.3474,1.3474,1.3474,1.3765,1.3732,1.3726,1.3685,1.3673,1.3642,1.3629,1.3612,1.3596,1.3558,1.3534,1.3524,1.3504,1.3473,1.3446,1.3442,1.3429,1.3422,1.3417,1.3461,1.3466,1.3472,1.3479,1.342,1.342,1.3372,1.3371,1.3371]}]]